Weather History for Ocean City, MD

Change the Weather History Date:

Sunday, September 22, 2013

  Actual Average (KSBY) Record (KSBY)
Temperature  
Mean Temperature 63 °F 66 °F  
Max Temperature 75 °F 76 °F 96 °F (1914)
Min Temperature 51 °F 56 °F 37 °F (1962)
Degree Days  
Heating Degree Days 2 2  
Month to date heating degree days 19  
Since 1 July heating degree days 21  
Cooling Degree Days 0 3  
Month to date cooling degree days 123  
Year to date cooling degree days 1106  
Growing Degree Days 13 (Base 50)    
Moisture  
Dew Point 60 °F    
Average Humidity 83    
Maximum Humidity 96    
Minimum Humidity 45    
Precipitation  
Precipitation 1.14 in 0.13 in 3.10 in (1979)
Month to date precipitation 2.90  
Year to date precipitation 33.97  
Snow  
Snow 0.00 in 0.00 in 0.00 in (2002)
Month to date snowfall 0.0  
Since 1 July snowfall 0.0  
Snow Depth -    
Sea Level Pressure  
Sea Level Pressure 29.78 in    
Wind  
Wind Speed 8 mph (NW)    
Max Wind Speed 14 mph    
Max Gust Speed 21 mph    
Visibility 8 miles    
Events Rain    
T = Trace of Precipitation, MM = Missing Value Source: NWS Daily Summary

Daily Weather History Graph

Daily Weather History Graph

Search for Another Location

Airport:

Trip Planner

Search our weather history database for the weather conditions in past years. The results will help you decide how hot, cold, wet, or windy it might be!

Date:

Astronomy

Sep. 22, 2013 Rise Set
Actual Time 6:48 AM EDT 6:57 PM EDT
Civil Twilight 6:22 AM EDT 7:23 PM EDT
Nautical Twilight 5:51 AM EDT 7:54 PM EDT
Astronomical Twilight 5:19 AM EDT 8:25 PM EDT
Moon 8:49 PM EDT (9/22) 10:02 AM EDT (9/22)
Length of Visible Light 13h 01m
Length of Day
12h 08m
Waning Gibbous, 89% of the Moon is Illuminated
Sep 22
Waning Gibbous
Sep 26
Last Quarter
Oct 4
New
Oct 11
First Quarter
Oct 18
Full

Hourly Weather History & Observations

Time (EDT) Temp. Dew Point Humidity Pressure Visibility Wind Dir Wind Speed Gust Speed Precip Events Conditions
12:04 AM 69.8 °F 68.0 °F 94% 29.73 in 1.0 mi SW 12.7 mph 20.7 mph 0.28 in Rain Heavy Rain
12:24 AM 69.8 °F 68.0 °F 94% 29.74 in 1.8 mi WNW 12.7 mph 19.6 mph 0.45 in Rain Heavy Rain
12:34 AM 66.2 °F 64.4 °F 94% 29.74 in 0.8 mi West 10.4 mph 17.3 mph 0.74 in Rain Heavy Rain
12:50 AM 66.2 °F 64.4 °F 94% 29.74 in 2.0 mi West 8.1 mph - 1.03 in Rain Rain
12:53 AM 66.0 °F 64.9 °F 96% 29.75 in 2.0 mi West 8.1 mph - 1.04 in Rain Rain
1:04 AM 66.2 °F 64.4 °F 94% 29.74 in 3.0 mi WSW 5.8 mph - 0.03 in Rain Rain
1:14 AM 66.2 °F 64.4 °F 94% 29.74 in 2.5 mi Calm Calm - 0.08 in Rain Rain
1:23 AM 66.2 °F 64.4 °F 94% 29.73 in 3.0 mi WSW 3.5 mph - 0.10 in Rain Light Rain
1:53 AM 66.0 °F 64.9 °F 96% 29.72 in 8.0 mi WSW 5.8 mph - 0.10 in Rain Light Rain
2:30 AM 66.2 °F 64.4 °F 94% 29.71 in 9.0 mi WSW 8.1 mph - 0.00 in   Mostly Cloudy
2:53 AM 66.9 °F 64.9 °F 93% 29.71 in 9.0 mi WSW 6.9 mph - 0.00 in Rain Light Rain
3:10 AM 66.2 °F 64.4 °F 94% 29.71 in 9.0 mi WSW 6.9 mph - 0.00 in Rain Light Rain
3:53 AM 66.9 °F 64.9 °F 93% 29.71 in 8.0 mi WNW 8.1 mph - 0.00 in Rain Light Rain
4:24 AM 66.2 °F 64.4 °F 94% 29.72 in 9.0 mi WNW 4.6 mph - 0.00 in   Overcast
4:53 AM 64.9 °F 63.0 °F 93% 29.73 in 10.0 mi NW 4.6 mph - 0.00 in   Overcast
5:53 AM 64.0 °F 62.1 °F 93% 29.74 in 10.0 mi NNW 5.8 mph - N/A   Overcast
6:03 AM 64.4 °F 62.6 °F 94% 29.75 in 10.0 mi NW 5.8 mph - N/A   Overcast
6:53 AM 64.0 °F 62.1 °F 93% 29.76 in 10.0 mi NNW 6.9 mph - N/A   Overcast
7:21 AM 64.4 °F 62.6 °F 94% 29.77 in 10.0 mi NNW 4.6 mph - N/A   Overcast
7:53 AM 64.0 °F 62.1 °F 93% 29.78 in 10.0 mi NNW 5.8 mph - N/A   Overcast
8:26 AM 64.4 °F 62.6 °F 94% 29.78 in 10.0 mi NNW 9.2 mph - N/A   Overcast
8:53 AM 64.9 °F 62.1 °F 90% 29.79 in 10.0 mi NNW 9.2 mph 16.1 mph N/A   Mostly Cloudy
9:35 AM 66.2 °F 60.8 °F 83% 29.80 in 10.0 mi North 8.1 mph - N/A   Mostly Cloudy
9:53 AM 68.0 °F 62.1 °F 81% 29.80 in 10.0 mi North 11.5 mph - N/A   Mostly Cloudy
10:53 AM 68.0 °F 60.1 °F 76% 29.81 in 10.0 mi North 10.4 mph - N/A   Scattered Clouds
11:53 AM 72.0 °F 57.9 °F 61% 29.81 in 10.0 mi North 13.8 mph 17.3 mph N/A   Partly Cloudy
12:53 PM 73.0 °F 57.0 °F 57% 29.81 in 10.0 mi NNE 10.4 mph 17.3 mph N/A   Scattered Clouds
1:53 PM 72.0 °F 55.0 °F 55% 29.79 in 10.0 mi North 8.1 mph - N/A   Mostly Cloudy
2:53 PM 73.9 °F 55.9 °F 53% 29.78 in 10.0 mi Calm Calm - N/A   Partly Cloudy
3:53 PM 73.9 °F 54.0 °F 50% 29.78 in 10.0 mi NNW 9.2 mph - N/A   Mostly Cloudy
4:53 PM 73.9 °F 51.1 °F 45% 29.79 in 10.0 mi NNW 8.1 mph - N/A   Clear
5:53 PM 70.0 °F 50.0 °F 49% 29.81 in 10.0 mi North 6.9 mph - N/A   Clear
6:53 PM 64.9 °F 51.1 °F 61% 29.83 in 10.0 mi North 5.8 mph - N/A   Clear
7:53 PM 60.1 °F 50.0 °F 69% 29.86 in 10.0 mi North 4.6 mph - N/A   Clear
8:53 PM 57.0 °F 51.1 °F 81% 29.87 in 10.0 mi North 4.6 mph - N/A   Clear
9:53 PM 55.0 °F 50.0 °F 83% 29.88 in 10.0 mi NNW 4.6 mph - N/A   Clear
10:53 PM 53.1 °F 50.0 °F 89% 29.89 in 10.0 mi North 3.5 mph - N/A   Clear
11:53 PM 51.1 °F 48.9 °F 92% 29.90 in 10.0 mi NNW 4.6 mph - N/A   Clear